Location: Wildcat Hills Observatory
(41.6350°N, 103.6812°W)
Time: 21:45:49
(UTC-06:00)

Daily predictions for brighter satellites

Satellite Brightness Start Highest point End
(mag) Time Altitude Azimuth Time Altitude Azimuth Time Altitude Azimuth
COSMOS 2428 3.0 20:56:25 10° NNW 21:02:02 56° ENE 21:07:36 10° SE
Cosmos 1500 Rocket 4.5 21:01:11 10° SSW 21:05:29 54° W 21:09:50 10° N
Cosmos 2058 3.4 21:03:17 10° SSE 21:07:06 39° E 21:10:57 10° NNE
Cosmos 1680 Rocket 3.7 21:02:17 10° NNW 21:07:33 80° WSW 21:12:49 10° SSE
Cosmos 2151 2.9 21:04:05 10° S 21:08:15 71° E 21:12:28 10° NNE
Cosmos 405 3.6 21:06:47 10° NNW 21:10:22 61° W 21:13:55 10° S
Cosmos 1437 3.0 21:14:08 10° SSW 21:17:24 74° W 21:20:42 10° N
Terra 4.1 21:17:05 10° ENE 21:18:05 11° ENE 21:19:04 10° NE
Cosmos 1898 Rocket 3.8 21:14:09 10° S 21:19:04 46° ESE 21:24:03 10° NNE
Delta 2 Rocket 4.1 21:15:49 10° WSW 21:19:11 29° S 21:22:04 11° SE
H-2A R/B 4.1 21:16:47 10° E 21:19:52 16° ENE 21:22:57 10° NNE
Tiangong 1 0.9 21:17:31 10° WSW 21:20:38 79° SSE 21:23:44 10° E
Cosmos 2237 4.3 21:17:47 10° NNW 21:23:34 88° ENE 21:29:16 10° SSE
Cosmos 1939 Rocket 2.8 21:19:45 10° SSE 21:23:40 85° WSW 21:27:34 10° NNW
ALOS 4.3 21:19:44 10° SSW 21:23:42 27° W 21:27:41 10° NW
NOSS 3-1 (A) 3.4 21:19:03 10° SSW 21:24:49 66° ESE 21:31:14 10° NE
Aureole 3 4.2 21:21:58 10° S 21:28:20 89° E 21:33:18 10° N
MetOp-B 4.4 21:23:39 10° SSE 21:28:51 55° ENE 21:34:04 10° N
Nadezhda 2 Rocket 4.4 21:23:09 10° S 21:29:16 83° E 21:35:23 10° N
Cosmos 2219 3.6 21:25:16 10° SSW 21:31:00 73° WNW 21:36:46 10° NNE
CZ-4 SHROUD 3.4 21:28:39 12° SSE 21:31:29 55° ENE 21:34:34 10° N
SPOT 1/Viking Rocket 4.2 21:27:31 11° SE 21:32:04 40° ENE 21:36:53 10° N
OAO 2 Rocket 4.0 21:28:11 10° WSW 21:33:04 38° S 21:37:58 10° ESE
Nimbus 7 Rocket 4.4 21:27:25 10° NNE 21:33:18 81° ESE 21:39:10 10° SSW
Cosmos 2237 Rocket 3.2 21:28:26 10° N 21:33:39 35° ENE 21:38:17 13° ESE
Cosmos 2150 Rocket 4.1 21:30:00 10° S 21:35:23 68° ESE 21:40:50 10° NNE
deb Chang Zheng 4 4.0 21:31:46 10° N 21:36:05 66° WNW 21:40:23 10° SSW
Sich 1 3.3 21:32:22 10° S 21:36:39 53° E 21:40:56 10° NNE
Cosmos 1271 Rocket 3.4 21:34:18 10° N 21:37:57 39° ENE 21:40:46 15° SE
Cosmos 1151 Rocket 4.5 21:34:06 10° NNW 21:38:05 37° W 21:42:05 10° SSW
Cosmos 1626 4.0 21:36:48 13° ESE 21:38:17 16° E 21:40:39 10° NE
Cosmos 2333 4.3 21:33:19 10° NNW 21:39:06 87° ENE 21:44:23 13° SSE
Cosmos 1328 4.5 21:35:27 10° SSW 21:39:19 56° W 21:43:14 10° N
Cosmos 2082 4.4 21:35:29 10° SSE 21:40:36 35° ESE 21:45:43 10° NE
ERBS 2.4 21:38:40 10° SSW 21:42:05 54° SE 21:45:31 10° NE
YAOGAN 6 2.9 21:39:28 15° SSE 21:42:17 51° ENE 21:45:47 10° N
Cosmos 2360 Rocket 3.7 21:37:21 10° NW 21:42:22 33° WSW 21:47:21 10° SSW
Cosmos 1633 Rocket 3.1 21:40:15 10° S 21:44:33 61° E 21:48:52 10° NNE
ERS-1 Rocket 4.3 21:42:10 10° SSW 21:46:50 38° W 21:51:32 10° NNW
ATLAS 2AS CENTAUR R/B 3.3 21:40:14 10° S 21:47:05 42° ESE 21:54:27 10° NE
Cosmos 2242 Rocket 3.7 21:46:42 10° N 21:51:10 62° E 21:54:37 17° SSE
Cosmos 1703 3.5 21:50:08 15° SSE 21:53:11 49° E 21:57:00 10° NNE
CZ-4C R/B 4.5 21:52:05 17° ESE 21:53:43 23° ENE 21:56:33 10° NNE
Envisat 3.6 21:49:24 10° S 21:54:22 54° W 21:59:22 10° NNW
CZ-4 R/B 4.3 21:49:48 10° NNE 21:54:28 42° E 21:58:03 16° SSE
SL-14 R/B 3.4 21:50:49 10° S 21:54:47 82° W 21:58:49 10° N
ATLAS 3B R/B 3.7 21:48:35 10° NNW 21:55:07 38° NE 22:00:41 12° ESE
PSLV R/B 3.8 21:55:40 14° S 21:58:07 52° W 22:01:07 10° NNW
USA 245 2.1 21:58:26 34° SE 21:59:10 54° ENE 22:01:22 10° N
Cosmos 1805 Rocket 4.5 21:58:05 10° SSW 22:02:23 49° W 22:06:43 10° N
Cosmos 220 Rocket 4.0 22:01:24 10° SSW 22:05:48 88° WNW 22:10:16 10° NNE
Cosmos 1300 3.8 22:03:37 10° NNW 22:07:15 42° W 22:10:50 10° SSW
USA 32 4.0 22:03:48 10° N 22:09:05 80° E 22:13:03 18° S
NOSS 3-1 (C) 4.4 22:04:09 10° WSW 22:09:54 51° NW 22:16:19 10° NNE
Cosmos 2227 Rocket 2.2 22:06:40 10° S 22:12:15 67° ESE 22:17:54 10° NNE
Cosmos 1937 Rocket 3.6 22:07:43 10° SSW 22:12:57 80° WNW 22:18:10 10° NNE
FALCON 9 R/B 4.4 21:40:03 10° WSW 22:13:33 65° S 22:20:47 14° ESE
Cosmos 990 Rocket 3.9 22:13:34 10° SSW 22:18:42 83° ESE 22:23:53 10° NNE
H-2A R/B 4.3 22:15:25 10° SSW 22:18:57 22° W 22:22:29 10° NW
DELTA 2 DEB (DPAF) 4.3 22:18:47 27° SE 22:21:07 61° ENE 22:25:32 10° N
Cosmos 292 Rocket 4.3 22:16:42 10° NNW 22:21:20 53° WSW 22:24:32 19° S
SPOT 5 4.2 22:19:27 10° SSW 22:23:40 34° W 22:28:09 10° NNW
OTV 4 1.5 22:24:17 10° WSW 22:26:19 31° SSW 22:26:19 31° SSW
CZ-4B R/B 3.9 22:23:22 10° N 22:28:35 66° WNW 22:33:41 10° SSW
Cosmos 1455 2.1 22:25:38 10° N 22:29:27 74° E 22:30:51 37° SSE
SL-16 R/B 2.9 22:24:06 10° NNW 22:29:32 43° ENE 22:32:32 24° ESE
ARGOS 3.3 22:26:16 21° S 22:29:58 73° WSW 22:35:22 10° NNW
Cosmos 1726 4.0 22:27:39 10° NNW 22:30:54 27° W 22:33:54 11° SSW
Cosmos 1346 3.1 22:29:55 37° SSW 22:30:57 78° W 22:34:00 10° N
Cosmos 2333 Rocket 2.4 22:28:40 10° NNW 22:34:24 70° WSW 22:37:44 26° S
Cosmos 2297 Rocket 2.1 22:33:34 13° SSW 22:38:42 77° ESE 22:44:22 10° NNE
Meteor 1-4 Rocket 4.3 22:35:51 10° NNW 22:39:06 29° W 22:41:20 16° SW
Landsat 7 3.7 22:36:52 31° SSE 22:39:11 88° ENE 22:43:58 10° NNW
Cosmos 1470 Rocket 3.8 22:36:19 20° SSW 22:39:17 68° W 22:43:35 10° N
Cosmos 1933 Rocket 3.8 22:37:06 20° SSW 22:40:10 70° W 22:44:39 10° N
Cosmos 2219 Rocket 2.9 22:36:08 10° NW 22:41:27 45° WSW 22:44:50 21° SSW
Lacrosse 4 Rocket 1.9 22:39:20 10° NNW 22:43:42 53° ENE 22:45:16 35° ESE
Cosmos 1703 Rocket 4.2 22:40:15 10° N 22:44:23 40° ENE 22:45:29 34° ESE
Cosmos 44 Rocket 3.9 22:43:23 34° SE 22:44:30 38° ESE 22:49:19 10° NE
SL-08 RB Rocket 4.1 22:43:10 26° SSW 22:45:30 55° W 22:49:57 10° NNW
Cosmos 1933 3.8 22:44:49 10° N 22:48:47 47° E 22:49:34 41° ESE
NOSS 2-3 (C) 4.2 22:47:39 36° SSE 22:48:59 44° ESE 22:54:13 10° NE
Cosmos 1269 Rocket 4.0 22:45:31 10° NNW 22:50:51 71° ENE 22:52:58 37° SE
Nadezhda 1 Rocket 4.2 22:47:00 10° NNW 22:53:02 64° W 22:56:55 23° SSW
Terra 1.7 22:53:14 39° SSE 22:55:02 88° E 22:59:50 10° NNW
Tiangong 1 1.2 22:54:12 10° W 22:57:17 69° N 22:57:27 67° NNE
H-2A R/B 2.2 22:56:03 33° S 22:58:34 78° WSW 23:04:02 10° NNW
COSMOS 2455 2.8 22:56:23 10° NNW 23:02:27 90° ENE 23:04:58 38° SSE
Cosmos 1048 Rocket 4.0 23:01:28 10° NNW 23:06:52 79° ENE 23:08:41 43° SSE
Cosmos 1125 Rocket 3.5 23:03:57 27° SSW 23:06:57 86° WNW 23:12:18 10° NNE
Cosmos 2221 Rocket 3.6 23:03:30 10° N 23:08:04 70° E 23:09:02 52° SE
Spot 4 3.8 23:08:33 45° S 23:10:05 85° WSW 23:14:59 10° NNW
NOSS 2-3 (D) 3.9 23:08:31 40° S 23:10:10 65° ESE 23:15:42 10° NE
Cosmos 389 Rocket 3.1 23:09:03 10° N 23:12:16 42° ENE 23:12:16 42° ENE
Cosmos 1626 3.8 23:11:29 19° SW 23:13:26 30° WNW 23:16:48 10° NNW
Cosmos 1869 4.4 23:09:51 10° NNW 23:13:39 39° W 23:14:51 31° SW
Cosmos 1709 Rocket 3.9 23:12:20 30° SSW 23:15:32 83° W 23:21:41 10° N
OAO 2 Rocket 4.0 23:12:31 10° WSW 23:16:59 37° SSW 23:16:59 37° SSW
Cosmos 372 Rocket 3.9 23:16:09 46° S 23:17:38 69° ESE 23:22:51 10° NNE
Cosmos 2237 Rocket 3.3 23:12:33 10° NW 23:17:40 35° WSW 23:20:07 24° SSW
CARTOSAT-1 4.3 23:19:15 35° SW 23:20:24 44° W 23:24:33 10° NNW
Cosmos 1892 4.5 23:25:00 21° ENE 23:25:00 21° ENE 23:27:10 10° NE
Meteor 1-26 Rocket 4.2 23:21:28 10° N 23:27:07 78° E 23:28:49 47° SSE
IGS 5A 4.3 23:27:25 36° SW 23:28:14 41° W 23:32:12 10° NNW
H-2A R/B 4.4 23:26:00 10° NE 23:28:27 19° E 23:28:27 19° E
Cosmos 44 3.8 23:33:28 45° ESE 23:33:32 45° ESE 23:38:43 10° NE
BREEZE-M DEB (TANK) 3.8 23:36:44 21° NE 23:36:44 21° NE 23:38:14 10° NE
ATLAS 2AS CENTAUR R/B 3.8 23:30:38 10° WSW 23:38:00 50° NW 23:45:52 10° NNE
In-Cosmos 22 Rocket 4.2 23:37:33 50° SSE 23:39:03 75° E 23:44:52 10° NNE
Meteor 2-10 Rocket 4.1 23:38:48 10° N 23:44:19 51° ENE 23:45:39 43° ESE
ATLAS 3B R/B 3.1 23:39:22 10° NW 23:46:00 50° WSW 23:47:56 39° SSW
COS B Rocket 3.6 23:42:20 10° N 23:46:19 61° W 23:46:40 58° WSW
Cosmos 1733 Rocket 3.8 23:46:56 40° E 23:46:56 40° E 23:50:52 10° NNE
Cosmos 1869 Rocket 4.3 23:48:02 40° WSW 23:49:02 49° W 23:53:24 10° N
Aureole 2 Rocket 3.2 23:47:14 10° NNW 23:49:43 50° NNW 23:49:43 50° NNW
Meteor 2-3 Rocket 3.7 23:51:08 53° S 23:52:36 88° E 23:58:20 10° N
CZ-4C R/B 4.1 23:54:16 38° NE 23:54:16 38° NE 23:57:09 10° N
Cosmos 2263 Rocket 3.7 23:54:57 21° E 23:54:57 21° E 23:58:47 10° NE
